Location: Unspecified
(0.0000°N, 0.0000°E)
Time: 10:50:41
(UTC+00:00)

A-11 Canister half - Pass Details

Date: 04 August 2021
Orbit: 1515 x 1685 km, 47.2° (Epoch: 27 September)

Event Time Altitude Azimuth Distance (km) Brightness Sun altitude
Rises 02:37:42 0° 294° (WNW) 4,912 - -48.9°
Reaches altitude 10° 02:41:33 10° 282° (WNW) 3,909 - -48.1°
Maximum altitude 02:49:32 27° 229° (SW) 2,750 - -46.3°
Drops below altitude 10° 02:57:22 10° 175° (S) 3,814 - -44.5°
Sets 03:01:08 0° 162° (SSE) 4,772 - -43.6°
